PTGAL SBCY-SBCY

Flight info

Callsign PTGAL
Flight time 0h 47m
Altitude 3000
Route 1540S05611W 1550S05608W DCT 1551S05605W
Aircraft BE58/L-SDFGRY/C

Departure

Time 2026-04-20 00:14
Airport Várzea Grande–Marechal Rondon International Airport (SBCY)

Arrival

Time 2026-04-20 01:02
Airport Várzea Grande–Marechal Rondon International Airport (SBCY)
Time Latitude Longitude Altitude Speed Heading
2026-04-20 00:05 -15.65675 -56.11748 544 ft 0 kts 335°
2026-04-20 00:08 -15.65650 -56.11755 599 ft 3 kts 31°
2026-04-20 00:09 -15.65622 -56.11703 599 ft 9 kts 27°
2026-04-20 00:09 -15.65564 -56.11729 599 ft 0 kts 332°
2026-04-20 00:10 -15.65562 -56.11730 599 ft 3 kts 332°
2026-04-20 00:10 -15.65550 -56.11736 599 ft 0 kts 332°
2026-04-20 00:10 -15.65550 -56.11737 599 ft 0 kts 332°
2026-04-20 00:10 -15.65549 -56.11737 599 ft 0 kts 332°
2026-04-20 00:11 -15.65526 -56.11748 599 ft 8 kts 347°
2026-04-20 00:11 -15.65498 -56.11719 599 ft 10 kts 63°
2026-04-20 00:11 -15.65421 -56.11735 599 ft 17 kts 331°
2026-04-20 00:11 -15.65321 -56.11787 599 ft 17 kts 330°
2026-04-20 00:12 -15.65241 -56.11823 599 ft 12 kts
2026-04-20 00:12 -15.65217 -56.11805 599 ft 0 kts 61°
2026-04-20 00:12 -15.65194 -56.11759 598 ft 14 kts 66°
2026-04-20 00:12 -15.65195 -56.11720 597 ft 0 kts 154°
2026-04-20 00:13 -15.65196 -56.11719 597 ft 6 kts 154°
2026-04-20 00:13 -15.65533 -56.11542 595 ft 96 kts 153°
2026-04-20 00:13 -15.66265 -56.11136 727 ft 133 kts 156°
2026-04-20 00:14 -15.67146 -56.10714 1158 ft 142 kts 161°
2026-04-20 00:14 -15.68088 -56.10305 1387 ft 160 kts 160°
2026-04-20 00:14 -15.69183 -56.09966 1581 ft 172 kts 164°
2026-04-20 00:14 -15.70368 -56.09638 1815 ft 182 kts 165°
2026-04-20 00:15 -15.71625 -56.09282 1990 ft 190 kts 164°
2026-04-20 00:15 -15.72892 -56.08917 2004 ft 198 kts 158°
2026-04-20 00:15 -15.73940 -56.08022 2008 ft 201 kts 120°
2026-04-20 00:15 -15.74254 -56.06627 2006 ft 200 kts 81°
2026-04-20 00:16 -15.73713 -56.05397 1999 ft 183 kts 42°
2026-04-20 00:16 -15.72641 -56.04777 2012 ft 175 kts 20°
2026-04-20 00:16 -15.71486 -56.04432 2003 ft 172 kts
2026-04-20 00:16 -15.70337 -56.04596 1993 ft 171 kts 343°
2026-04-20 00:17 -15.69281 -56.05139 1988 ft 167 kts 331°
2026-04-20 00:17 -15.68321 -56.05733 1996 ft 164 kts 330°
2026-04-20 00:17 -15.67333 -56.06355 1995 ft 167 kts 330°
2026-04-20 00:17 -15.66341 -56.06973 1995 ft 165 kts 330°
2026-04-20 00:18 -15.65369 -56.07580 2000 ft 166 kts 330°
2026-04-20 00:18 -15.64699 -56.07998 2004 ft 168 kts 330°
2026-04-20 00:18 -15.63355 -56.08824 2005 ft 171 kts 330°
2026-04-20 00:18 -15.62334 -56.09454 2010 ft 170 kts 330°
2026-04-20 00:19 -15.61643 -56.09880 2007 ft 171 kts 330°
2026-04-20 00:19 -15.60296 -56.10700 2007 ft 174 kts 330°
2026-04-20 00:19 -15.59601 -56.11123 2010 ft 175 kts 330°
2026-04-20 00:19 -15.58539 -56.11766 2007 ft 178 kts 330°
2026-04-20 00:20 -15.57599 -56.12598 1995 ft 181 kts 302°
2026-04-20 00:20 -15.57391 -56.13851 1997 ft 179 kts 260°
2026-04-20 00:20 -15.58054 -56.14925 1992 ft 182 kts 217°
2026-04-20 00:20 -15.59241 -56.15265 2002 ft 180 kts 173°
2026-04-20 00:21 -15.60424 -56.14944 2007 ft 182 kts 162°
2026-04-20 00:21 -15.61641 -56.14549 2008 ft 184 kts 161°
2026-04-20 00:21 -15.62856 -56.14159 2008 ft 181 kts 162°
2026-04-20 00:21 -15.64040 -56.13772 2005 ft 177 kts 161°
2026-04-20 00:22 -15.65230 -56.13367 2010 ft 183 kts 162°
2026-04-20 00:22 -15.66446 -56.12946 2007 ft 185 kts 161°
2026-04-20 00:22 -15.67675 -56.12544 2001 ft 184 kts 162°
2026-04-20 00:22 -15.68889 -56.12143 2006 ft 183 kts 162°
2026-04-20 00:23 -15.70098 -56.11765 1996 ft 179 kts 166°
2026-04-20 00:23 -15.71323 -56.11555 1991 ft 178 kts 172°
2026-04-20 00:23 -15.72546 -56.11470 2002 ft 179 kts 183°
2026-04-20 00:23 -15.73808 -56.11590 2001 ft 184 kts 187°
2026-04-20 00:24 -15.75096 -56.11721 2010 ft 188 kts 186°
2026-04-20 00:24 -15.76394 -56.11863 2004 ft 187 kts 187°
2026-04-20 00:24 -15.77666 -56.11995 1999 ft 193 kts 186°
2026-04-20 00:24 -15.79026 -56.12145 1995 ft 193 kts 187°
2026-04-20 00:25 -15.80335 -56.12285 1995 ft 186 kts 186°
2026-04-20 00:25 -15.81612 -56.12426 1989 ft 183 kts 186°
2026-04-20 00:25 -15.82864 -56.12578 1981 ft 180 kts 186°
2026-04-20 00:25 -15.84114 -56.12740 1977 ft 183 kts 187°
2026-04-20 00:26 -15.85378 -56.12897 1977 ft 183 kts 187°
2026-04-20 00:26 -15.86644 -56.13045 1978 ft 184 kts 186°
2026-04-20 00:26 -15.87911 -56.13202 1974 ft 182 kts 187°
2026-04-20 00:26 -15.89163 -56.13344 1980 ft 181 kts 186°
2026-04-20 00:27 -15.90421 -56.13497 1975 ft 182 kts 186°
2026-04-20 00:27 -15.91623 -56.13642 1970 ft 181 kts 186°
2026-04-20 00:27 -15.92889 -56.13803 1970 ft 181 kts 187°
2026-04-20 00:27 -15.94118 -56.13869 1961 ft 179 kts 174°
2026-04-20 00:28 -15.95350 -56.13694 1961 ft 178 kts 171°
2026-04-20 00:28 -15.96526 -56.13345 1962 ft 175 kts 154°
2026-04-20 00:28 -15.97408 -56.12514 1959 ft 170 kts 118°
2026-04-20 00:28 -15.97821 -56.11384 1963 ft 168 kts 92°
2026-04-20 00:29 -15.97721 -56.10196 1970 ft 175 kts 77°
2026-04-20 00:29 -15.97519 -56.08954 1978 ft 174 kts 77°
2026-04-20 00:29 -15.97299 -56.07702 1975 ft 178 kts 77°
2026-04-20 00:29 -15.97060 -56.06420 1978 ft 184 kts 76°
2026-04-20 00:30 -15.96848 -56.05108 1974 ft 186 kts 82°
2026-04-20 00:30 -15.96877 -56.03768 1963 ft 183 kts 90°
2026-04-20 00:30 -15.96944 -56.02466 1960 ft 178 kts 90°
2026-04-20 00:30 -15.97014 -56.01192 1958 ft 176 kts 91°
2026-04-20 00:31 -15.97063 -55.99928 1962 ft 175 kts 89°
2026-04-20 00:31 -15.97132 -55.98672 1958 ft 178 kts 90°
2026-04-20 00:31 -15.97216 -55.97393 1955 ft 177 kts 90°
2026-04-20 00:31 -15.97356 -55.96119 1957 ft 180 kts 100°
2026-04-20 00:32 -15.97793 -55.94906 1953 ft 180 kts 117°
2026-04-20 00:32 -15.98601 -55.93894 1966 ft 185 kts 135°
2026-04-20 00:32 -15.99580 -55.93005 1956 ft 186 kts 137°
2026-04-20 00:32 -16.00556 -55.92133 1967 ft 185 kts 137°
2026-04-20 00:33 -16.01543 -55.91249 1964 ft 190 kts 137°
2026-04-20 00:33 -16.02665 -55.90535 1960 ft 189 kts 152°
2026-04-20 00:33 -16.03855 -55.89947 1966 ft 190 kts 153°
2026-04-20 00:33 -16.05081 -55.89417 1952 ft 190 kts 161°
2026-04-20 00:34 -16.06316 -55.89084 1958 ft 186 kts 168°
2026-04-20 00:34 -16.07589 -55.88899 1956 ft 184 kts 178°
2026-04-20 00:34 -16.08851 -55.89040 1955 ft 182 kts 191°
2026-04-20 00:34 -16.10026 -55.89465 1952 ft 182 kts 208°
2026-04-20 00:35 -16.11150 -55.90071 1954 ft 182 kts 209°
2026-04-20 00:35 -16.12268 -55.90681 1954 ft 182 kts 208°
2026-04-20 00:35 -16.13363 -55.91305 1964 ft 185 kts 210°
2026-04-20 00:35 -16.14493 -55.91950 1962 ft 185 kts 210°
2026-04-20 00:36 -16.15613 -55.92600 1960 ft 183 kts 212°
2026-04-20 00:36 -16.16609 -55.93431 1959 ft 183 kts 224°
2026-04-20 00:36 -16.17569 -55.94284 1955 ft 179 kts 222°
2026-04-20 00:36 -16.18506 -55.95128 1954 ft 178 kts 222°
2026-04-20 00:37 -16.19438 -55.95972 1954 ft 178 kts 223°
2026-04-20 00:37 -16.20376 -55.96803 1964 ft 178 kts 223°
2026-04-20 00:37 -16.21312 -55.97623 1961 ft 181 kts 225°
2026-04-20 00:37 -16.21987 -55.98764 1709 ft 192 kts 251°
2026-04-20 00:38 -16.22424 -56.00032 1713 ft 183 kts 255°
2026-04-20 00:38 -16.22777 -56.01260 1590 ft 182 kts 252°
2026-04-20 00:38 -16.23601 -56.02197 1509 ft 190 kts 203°
2026-04-20 00:38 -16.24915 -56.02096 1292 ft 197 kts 148°
2026-04-20 00:39 -16.25688 -56.01061 1221 ft 179 kts 101°
2026-04-20 00:39 -16.25585 -55.99830 1144 ft 171 kts 61°
2026-04-20 00:39 -16.25031 -55.98760 1160 ft 167 kts 55°
2026-04-20 00:39 -16.24196 -55.97974 1149 ft 161 kts 21°
2026-04-20 00:40 -16.23115 -55.97813 1227 ft 157 kts 354°
2026-04-20 00:40 -16.22053 -55.98004 1337 ft 153 kts 349°
2026-04-20 00:40 -16.21019 -55.98169 1439 ft 147 kts
2026-04-20 00:40 -16.20100 -55.97889 1544 ft 143 kts 19°
2026-04-20 00:41 -16.19283 -55.97336 1656 ft 138 kts 38°
2026-04-20 00:41 -16.18565 -55.96683 1757 ft 135 kts 38°
2026-04-20 00:41 -16.17806 -55.96008 1894 ft 152 kts 38°
2026-04-20 00:41 -16.16925 -55.95317 1976 ft 166 kts 23°
2026-04-20 00:42 -16.15759 -55.95118 1977 ft 178 kts
2026-04-20 00:42 -16.14498 -55.95047 1978 ft 184 kts
2026-04-20 00:42 -16.13201 -55.94902 1978 ft 191 kts
2026-04-20 00:42 -16.11873 -55.94865 1973 ft 186 kts 358°
2026-04-20 00:43 -16.10640 -55.95133 1965 ft 177 kts 344°
2026-04-20 00:43 -16.09473 -55.95518 1965 ft 175 kts 343°
2026-04-20 00:43 -16.08329 -55.95917 2027 ft 171 kts 342°
2026-04-20 00:43 -16.07207 -55.96320 2257 ft 171 kts 343°
2026-04-20 00:44 -16.06067 -55.96731 2511 ft 177 kts 343°
2026-04-20 00:44 -16.04892 -55.97149 2747 ft 180 kts 342°
2026-04-20 00:44 -16.03702 -55.97577 2962 ft 182 kts 343°
2026-04-20 00:44 -16.02469 -55.98016 2970 ft 192 kts 343°
2026-04-20 00:45 -16.01219 -55.98465 2960 ft 185 kts 342°
2026-04-20 00:45 -16.00032 -55.98894 2958 ft 179 kts 342°
2026-04-20 00:45 -15.98860 -55.99313 2961 ft 177 kts 342°
2026-04-20 00:45 -15.97694 -55.99729 2968 ft 177 kts 341°
2026-04-20 00:46 -15.96567 -56.00135 2970 ft 174 kts 342°
2026-04-20 00:46 -15.95423 -56.00543 2967 ft 173 kts 342°
2026-04-20 00:46 -15.94314 -56.00939 2968 ft 172 kts 341°
2026-04-20 00:46 -15.93185 -56.01345 2968 ft 171 kts 341°
2026-04-20 00:47 -15.92068 -56.01741 2973 ft 173 kts 342°
2026-04-20 00:47 -15.90935 -56.02149 2975 ft 170 kts 341°
2026-04-20 00:47 -15.89865 -56.02535 2968 ft 165 kts 342°
2026-04-20 00:47 -15.88782 -56.02922 2977 ft 165 kts 342°
2026-04-20 00:48 -15.87700 -56.03308 2982 ft 164 kts 342°
2026-04-20 00:48 -15.86619 -56.03687 2979 ft 162 kts 346°
2026-04-20 00:48 -15.85514 -56.03577 2974 ft 162 kts 19°
2026-04-20 00:48 -15.84446 -56.03276 2977 ft 157 kts
2026-04-20 00:49 -15.83351 -56.03199 2983 ft 159 kts
2026-04-20 00:49 -15.82272 -56.03152 2982 ft 161 kts
2026-04-20 00:49 -15.81171 -56.03105 2983 ft 160 kts
2026-04-20 00:49 -15.80063 -56.03073 2989 ft 161 kts
2026-04-20 00:50 -15.78943 -56.03013 3001 ft 162 kts
2026-04-20 00:50 -15.77809 -56.02960 2993 ft 163 kts
2026-04-20 00:50 -15.76678 -56.02915 2994 ft 163 kts
2026-04-20 00:50 -15.75535 -56.02873 3003 ft 165 kts
2026-04-20 00:51 -15.74419 -56.02828 3000 ft 165 kts
2026-04-20 00:51 -15.73255 -56.02783 2979 ft 165 kts
2026-04-20 00:51 -15.72108 -56.02734 2976 ft 165 kts
2026-04-20 00:51 -15.70973 -56.02685 2983 ft 166 kts
2026-04-20 00:52 -15.69802 -56.02635 2971 ft 169 kts
2026-04-20 00:52 -15.68628 -56.02587 2985 ft 169 kts
2026-04-20 00:52 -15.67447 -56.02539 2969 ft 169 kts
2026-04-20 00:52 -15.66309 -56.02494 2969 ft 158 kts
2026-04-20 00:53 -15.65222 -56.02453 2956 ft 155 kts
2026-04-20 00:53 -15.64193 -56.02406 2962 ft 153 kts
2026-04-20 00:53 -15.63142 -56.02365 2965 ft 152 kts
2026-04-20 00:53 -15.62071 -56.02320 2964 ft 156 kts
2026-04-20 00:54 -15.60980 -56.02356 2967 ft 158 kts 346°
2026-04-20 00:54 -15.59980 -56.02840 2930 ft 160 kts 334°
2026-04-20 00:54 -15.59034 -56.03346 2771 ft 149 kts 335°
2026-04-20 00:54 -15.58127 -56.03826 2613 ft 147 kts 334°
2026-04-20 00:55 -15.57194 -56.04320 2434 ft 154 kts 334°
2026-04-20 00:55 -15.56218 -56.04837 2289 ft 161 kts 334°
2026-04-20 00:55 -15.55204 -56.05373 2181 ft 171 kts 334°
2026-04-20 00:55 -15.54160 -56.05929 2184 ft 166 kts 334°
2026-04-20 00:56 -15.53149 -56.06473 2179 ft 161 kts 334°
2026-04-20 00:56 -15.52164 -56.06998 2174 ft 158 kts 333°
2026-04-20 00:56 -15.51273 -56.07656 2169 ft 157 kts 321°
2026-04-20 00:56 -15.50549 -56.08499 2165 ft 157 kts 308°
2026-04-20 00:57 -15.50015 -56.09493 2169 ft 160 kts 296°
2026-04-20 00:57 -15.49694 -56.10627 2176 ft 168 kts 283°
2026-04-20 00:57 -15.49631 -56.11843 2181 ft 170 kts 269°
2026-04-20 00:57 -15.49849 -56.13062 2174 ft 173 kts 255°
2026-04-20 00:58 -15.50312 -56.14144 2181 ft 173 kts 242°
2026-04-20 00:58 -15.51055 -56.15140 2183 ft 177 kts 227°
2026-04-20 00:58 -15.52023 -56.15939 2183 ft 181 kts 213°
2026-04-20 00:58 -15.53174 -56.16473 2182 ft 182 kts 197°
2026-04-20 00:59 -15.54420 -56.16697 2175 ft 181 kts 182°
2026-04-20 00:59 -15.55667 -56.16588 2176 ft 179 kts 167°
2026-04-20 00:59 -15.56847 -56.16166 2166 ft 180 kts 153°
2026-04-20 00:59 -15.57956 -56.15556 2172 ft 182 kts 152°
2026-04-20 01:00 -15.59062 -56.14980 2040 ft 178 kts 152°
2026-04-20 01:00 -15.60141 -56.14415 1664 ft 170 kts 153°
2026-04-20 01:00 -15.61170 -56.13881 1443 ft 156 kts 151°
2026-04-20 01:00 -15.62086 -56.13393 1185 ft 142 kts 152°
2026-04-20 01:01 -15.62926 -56.12929 1005 ft 133 kts 153°
2026-04-20 01:01 -15.63747 -56.12495 815 ft 132 kts 153°
2026-04-20 01:01 -15.64554 -56.12062 630 ft 127 kts 153°
2026-04-20 01:01 -15.65270 -56.11684 597 ft 101 kts 152°
2026-04-20 01:02 -15.65629 -56.11492 596 ft 33 kts 154°
2026-04-20 01:02 -15.65842 -56.11391 593 ft 36 kts 154°
2026-04-20 01:02 -15.66074 -56.11260 594 ft 38 kts 151°
2026-04-20 01:02 -15.66225 -56.11218 596 ft 22 kts 228°
2026-04-20 01:03 -15.66189 -56.11323 599 ft 11 kts 327°
2026-04-20 01:03 -15.66192 -56.11399 599 ft 14 kts 243°
2026-04-20 01:03 -15.66200 -56.11415 599 ft 0 kts 243°